[[{"header":{"parameterUnit":"m.s-1","parameterCategory":1,"la1":30.2991,"la2":30.254,"lo1":-89.0895,"lo2":-89.0444,"dy":0.0017,"dx":0.0017,"nx":28,"ny":28,"refTime":"2024-07-04T03:00:00:Z","depth":0,"parameterNumber":2,"parameterNumberName":"U-component_of_WINDS"},"data":[0,0,0,0,0,0,0,0,0,0,0,0,0,0,0,0,0,0,0,0,0,0,0,0,0,0,0,0,0,0,0,0,0,0,0,0,0,0,0,0,0,0,0,0,0,0,0,0,0,0,0,0,0,0,0,0,0,0,1.9948,1.9948,0,1.9992,1.9993,1.9993,1.9997,1.9997,1.9996,1.9996,2.0041,2.0042,2.0044,0,0,0,0,0,0,0,0,0,0,0,0,0,1.9864,1.9866,1.9948,1.9948,1.9949,1.9992,1.9993,1.9993,1.9997,1.9997,1.9996,1.9996,2.004,2.0042,2.0044,0,0,0,0,0,0,0,0,0,0,0,0,0,1.9904,1.9866,1.9947,1.9956,1.9957,1.9992,1.9993,1.9994,1.9997,1.9997,1.9996,1.9995,2.004,2.0042,2.0044,2.0074,0,0,2.0052,2.0053,0,0,0,0,0,0,0,0,1.9902,1.9907,1.9954,1.9955,1.9957,1.9988,1.998,2.0021,1.9998,1.9982,1.9996,1.9995,2.0024,2.0028,2.0038,2.0076,2.0078,2.0052,2.0054,2.0055,2.0055,0,0,0,0,0,0,0,1.9899,1.9905,1.9965,1.9955,1.9956,1.9957,1.9962,1.9988,2.0006,1.9983,1.9984,1.9989,2.0025,2.0035,2.0039,2.0079,2.0052,2.0054,2.0056,2.0057,2.0143,2.0144,0,0,0,0,0,0,1.9895,1.9903,1.9964,1.9967,1.9927,1.9959,1.9964,1.9979,2.0006,2.001,1.999,1.9989,2.0031,2.0036,2.004,2.0076,2.0055,2.0057,2.0058,2.0142,2.0143,2.0144,0,0,0,0,0,0,1.9893,1.99,1.9962,1.9935,1.9943,1.9961,1.9977,1.998,1.9991,2.0011,2.0014,1.9997,2.0031,2.0037,2.0065,2.0078,2.0058,2.006,2.0141,2.0142,2.0143,2.0148,0,0,0,0,0,0,1.9891,1.9899,1.9911,1.9935,1.9944,1.9987,1.9978,1.9982,1.9995,1.9995,2.0019,2.0022,2.0031,2.0062,2.0068,2.0081,2.0062,2.014,2.0142,2.0143,2.0147,2.0149,2.0151,0,0,0,0,0,1.9888,1.9911,1.9912,1.9919,1.9959,1.9987,1.9993,2.0002,1.9996,2.0008,2.0021,2.0021,2.0075,2.0065,2.0072,2.0085,2.0139,2.0141,2.0143,2.0146,2.0149,2.0151,0,0,0,0,0,0,1.9887,1.9914,1.9915,1.9947,1.9965,1.9988,2.0003,2.0005,2.0025,2.0024,2.0035,2.0041,2.0069,2.008,2.0067,2.0115,2.0107,2.011,2.0106,2.0109,2.0111,2.0108,2.0064,0,0,0,0,0,1.9891,1.9912,1.9934,1.996,1.9969,1.9984,1.9997,2.0003,2.0022,2.0029,2.0044,2.0063,2.0084,2.0097,2.0118,2.0149,2.0153,2.0161,2.0163,2.0165,2.0168,2.0184,2.0188,2.015,2.015,2.015,0,0,1.9899,1.9916,1.9928,1.996,1.9975,1.9996,1.9991,2.0013,2.0029,2.0033,2.0061,2.0072,2.0093,2.0123,2.0137,2.0133,2.0179,2.0168,2.0169,2.017,2.0186,2.019,2.0193,2.0151,2.0151,2.0151,0,0,1.9923,1.9939,1.9961,1.9976,1.9999,2.0009,2.0014,2.0037,2.0045,2.0073,2.0076,2.0095,2.0131,2.0146,2.0158,2.0188,2.0189,2.0194,2.0205,2.0221,2.0224,2.0227,2.0237,2.024,2.0197,2.0197,2.0197,0,1.993,1.9962,1.9973,1.9995,2.0009,2.0014,2.0036,2.005,2.0078,2.0087,2.0083,2.0128,2.0142,2.0175,2.0182,2.0192,2.0198,2.0191,2.0223,2.0226,2.0228,2.0238,2.0242,2.0197,2.0197,2.0197,2.0197,0,1.9969,1.9991,2.0007,2.0033,2.0049,2.0071,2.0085,2.0099,2.0104,2.0114,2.0143,2.016,2.0184,2.0192,2.0197,2.0226,2.0223,2.0221,2.0212,2.0232,2.0241,2.0245,2.0198,2.0198,2.0197,2.0197,0,0,1.9994,2.0026,2.0032,2.0044,2.0069,2.0086,2.0108,2.0132,2.0144,2.0163,2.0181,2.0212,2.021,2.0224,2.023,2.0244,2.0266,2.024,2.0241,2.0244,2.0297,2.0298,2.0302,2.0267,2.0268,2.0268,2.0295,0,2.0021,2.0061,2.0071,2.0106,2.0126,2.0131,2.015,2.0168,2.0178,2.0196,2.0208,2.0229,2.0225,2.0233,2.0248,2.026,2.0276,2.0258,2.0284,2.0284,2.0277,2.0307,2.0308,2.0333,2.0299,2.0299,2.03,0,2.0057,2.0077,2.0113,2.0135,2.0144,2.0162,2.0184,2.0202,2.0221,2.0227,2.0243,2.0248,2.0271,2.0262,2.0294,2.0281,2.0292,2.03,2.0301,2.0303,2.0293,2.0309,2.0341,2.0344,2.0306,2.0305,2.0305,0,2.0071,2.0107,2.0133,2.0143,2.017,2.0182,2.0193,2.0212,2.0225,2.0244,2.0253,2.0275,2.0286,2.0303,2.0313,2.0306,2.0344,2.0336,2.0349,2.0349,2.0356,2.0356,2.0389,2.0365,2.0365,2.0365,2.0365,0,2.0099,2.0121,2.0139,2.0156,2.018,2.0191,2.0215,2.0227,2.0243,2.0261,2.0267,2.0284,2.0297,2.0315,2.0324,2.0348,2.0354,2.0359,2.0361,2.0358,2.0357,2.0365,2.0363,2.0366,2.0366,2.0365,2.0365,0,2.0118,2.0132,2.0161,2.0183,2.0189,2.0206,2.0226,2.0241,2.0252,2.0274,2.028,2.0297,2.0319,2.0331,2.0359,2.0364,2.0391,2.0393,2.0385,2.0385,2.0397,2.0396,2.0437,2.0442,2.0415,2.0415,2.0415,0,2.0135,2.0152,2.0177,2.0189,2.0201,2.0221,2.0235,2.0247,2.0261,2.0284,2.0296,2.0319,2.0337,2.0372,2.0386,2.0407,2.0408,2.0421,2.0411,2.0408,2.0407,2.0406,2.0407,2.0422,2.0423,2.0423,2.0423,0,2.0163,2.0169,2.0189,2.0211,2.0227,2.0244,2.0262,2.0272,2.0287,2.0302,2.0324,2.0339,2.0367,2.0388,2.041,2.0422,2.0424,2.0426,2.043,2.0427,2.0421,2.0424,2.0388,2.0425,2.0425,2.0425,2.0424,2.0424,2.0181,2.0196,2.0216,2.0237,2.0252,2.0268,2.0284,2.0296,2.0315,2.0339,2.0345,2.0369,2.0387,2.0417,2.0429,2.0447,2.0445,2.0451,2.0452,2.0453,2.0453,2.0419,2.0451,2.0451,2.0451,2.0451,2.0451,0,2.0209,2.0222,2.0242,2.0266,2.0283,2.0285,2.0304,2.0318,2.0338,2.0356,2.0374,2.0399,2.042,2.0436,2.0457,2.0469,2.0471,2.0474,2.0473,2.0475,2.0454,2.0448,2.0472,2.0472,2.0472,2.0472,2.0472,2.0472,2.0225,2.0251,2.0259,2.0291,2.0304,2.0327,2.0338,2.0353,2.0366,2.0395,2.0412,2.0423,2.0439,2.0462,2.0481,2.0485,2.0492,2.0495,2.0499,2.0479,2.0477,2.0475,2.0469,2.0497,2.0497,2.0518,2.0519,2.0519]},{"header":{"parameterUnit":"m.s-1","parameterCategory":1,"la1":30.2991,"la2":30.254,"lo1":-89.0895,"lo2":-89.0444,"dy":0.0017,"dx":0.0017,"nx":28,"ny":28,"refTime":"2024-07-04T03:00:00:Z","depth":0,"parameterNumber":3,"parameterNumberName":"V-component_of_WINDS"},"data":[0,0,0,0,0,0,0,0,0,0,0,0,0,0,0,0,0,0,0,0,0,0,0,0,0,0,0,0,0,0,0,0,0,0,0,0,0,0,0,0,0,0,0,0,0,0,0,0,0,0,0,0,0,0,0,0,0,0,3.3009,3.301,0,3.3056,3.3057,3.3057,3.3076,3.3076,3.3076,3.3076,3.312,3.3121,3.3122,0,0,0,0,0,0,0,0,0,0,0,0,0,3.2931,3.2932,3.3009,3.301,3.301,3.3056,3.3057,3.3057,3.3076,3.3076,3.3076,3.3076,3.3119,3.3121,3.3122,0,0,0,0,0,0,0,0,0,0,0,0,0,3.297,3.2932,3.3009,3.3025,3.3027,3.3056,3.3057,3.3058,3.3076,3.3076,3.3076,3.3076,3.3119,3.3121,3.3123,3.3137,0,0,3.3128,3.3129,0,0,0,0,0,0,0,0,3.2968,3.2973,3.3022,3.3024,3.3026,3.306,3.3045,3.3084,3.3076,3.3058,3.3076,3.3076,3.31,3.3103,3.3112,3.3139,3.3141,3.3128,3.313,3.313,3.3131,0,0,0,0,0,0,0,3.2965,3.2971,3.3028,3.3023,3.3026,3.3029,3.3034,3.3053,3.3079,3.3059,3.3061,3.3066,3.3101,3.311,3.3113,3.3142,3.3128,3.313,3.3131,3.3132,3.3182,3.3182,0,0,0,0,0,0,3.296,3.2968,3.3026,3.3029,3.2996,3.303,3.3036,3.3049,3.3079,3.3083,3.3066,3.3067,3.3107,3.3111,3.3115,3.3134,3.313,3.3132,3.3133,3.3182,3.3182,3.3183,0,0,0,0,0,0,3.2958,3.2965,3.3024,3.2999,3.3007,3.3032,3.3046,3.3051,3.306,3.3084,3.3088,3.3072,3.3107,3.3112,3.3132,3.3136,3.3133,3.3135,3.3182,3.3182,3.3182,3.3172,0,0,0,0,0,0,3.2956,3.2964,3.2971,3.2999,3.3008,3.3041,3.3047,3.3052,3.3064,3.3065,3.309,3.3094,3.3108,3.3129,3.3134,3.3138,3.3136,3.3182,3.3182,3.3182,3.3172,3.3172,3.3172,0,0,0,0,0,3.2953,3.2965,3.2972,3.2978,3.3018,3.3042,3.3047,3.3063,3.3064,3.3071,3.3086,3.3093,3.3135,3.3131,3.3136,3.3142,3.3181,3.3182,3.3182,3.3172,3.3172,3.3172,0,0,0,0,0,0,3.2936,3.2969,3.2977,3.2999,3.3017,3.3045,3.3054,3.3062,3.308,3.308,3.3099,3.3104,3.3122,3.3133,3.3128,3.3157,3.3158,3.316,3.3149,3.3149,3.3149,3.3145,3.3138,0,0,0,0,0,3.2935,3.2953,3.2981,3.2997,3.3007,3.3028,3.3039,3.3051,3.307,3.3078,3.3094,3.3112,3.3129,3.3139,3.3156,3.3174,3.3179,3.318,3.318,3.318,3.3181,3.3191,3.3191,3.3184,3.3184,3.3184,0,0,3.2932,3.2953,3.2963,3.2995,3.301,3.3028,3.3035,3.3053,3.3065,3.308,3.31,3.3112,3.3133,3.3151,3.316,3.3162,3.3184,3.318,3.318,3.3181,3.3191,3.3192,3.3192,3.3184,3.3184,3.3184,0,0,3.2937,3.2955,3.2971,3.2987,3.3011,3.3026,3.3029,3.3056,3.3065,3.3086,3.3097,3.3111,3.314,3.3154,3.3165,3.3174,3.3182,3.3179,3.3178,3.3188,3.3188,3.3189,3.3192,3.3193,3.318,3.318,3.318,0,3.2931,3.2959,3.2977,3.2995,3.3008,3.3024,3.3039,3.3053,3.3081,3.3089,3.309,3.3127,3.3141,3.3163,3.3166,3.3174,3.3178,3.3177,3.3187,3.3188,3.3189,3.3192,3.3193,3.318,3.318,3.318,3.318,0,3.2949,3.2968,3.2978,3.3007,3.302,3.3037,3.3057,3.3068,3.3078,3.3091,3.3111,3.313,3.3151,3.3156,3.3165,3.318,3.318,3.3184,3.3186,3.3189,3.3192,3.3193,3.3179,3.3179,3.3179,3.3179,0,0,3.2945,3.2984,3.2987,3.3,3.3028,3.3042,3.3058,3.308,3.309,3.3108,3.3121,3.3145,3.3149,3.3162,3.3172,3.318,3.3187,3.3184,3.3184,3.3184,3.3203,3.32,3.3201,3.3192,3.3192,3.3192,3.3201,0,3.2953,3.2986,3.3003,3.3027,3.3044,3.3059,3.3073,3.3091,3.3104,3.3119,3.3132,3.3149,3.3153,3.3161,3.317,3.3184,3.3191,3.3184,3.3204,3.3204,3.3199,3.3203,3.32,3.3208,3.3203,3.3203,3.3203,0,3.2968,3.2988,3.3014,3.304,3.3048,3.3061,3.3082,3.3097,3.3116,3.3125,3.3139,3.315,3.3166,3.3166,3.3189,3.3183,3.3192,3.32,3.3201,3.3204,3.3204,3.3206,3.3211,3.3212,3.3206,3.3205,3.3205,0,3.2962,3.2995,3.3016,3.3026,3.3057,3.3065,3.3078,3.3098,3.311,3.3127,3.3135,3.3154,3.3164,3.3178,3.3193,3.3192,3.3213,3.3215,3.322,3.322,3.3225,3.3224,3.3231,3.323,3.323,3.323,3.323,0,3.297,3.2986,3.3013,3.3026,3.3043,3.3062,3.3078,3.3092,3.3109,3.3123,3.3136,3.3149,3.3168,3.3182,3.3194,3.321,3.3214,3.3221,3.3224,3.322,3.322,3.3227,3.3227,3.323,3.323,3.323,3.323,0,3.2967,3.2986,3.3009,3.3037,3.3044,3.3055,3.3078,3.309,3.3103,3.3121,3.3126,3.3147,3.3165,3.3181,3.3204,3.3212,3.3229,3.3232,3.3222,3.3224,3.3228,3.3228,3.3241,3.3243,3.324,3.324,3.324,0,3.2971,3.2984,3.3013,3.3024,3.3037,3.3055,3.3067,3.3085,3.3098,3.3121,3.313,3.3149,3.3165,3.3193,3.3209,3.3227,3.3231,3.3234,3.3233,3.3229,3.3231,3.323,3.3231,3.3234,3.3234,3.3234,3.3234,0,3.2976,3.2985,3.3004,3.3026,3.3041,3.3058,3.3076,3.3084,3.3105,3.3118,3.3137,3.315,3.3174,3.3193,3.3212,3.3224,3.3232,3.3234,3.3236,3.3232,3.3226,3.323,3.3222,3.3233,3.3233,3.3233,3.3233,3.3233,3.2977,3.2989,3.3011,3.3031,3.3047,3.3063,3.3076,3.3092,3.3108,3.3131,3.314,3.3159,3.3178,3.3205,3.3216,3.3231,3.3232,3.3235,3.3236,3.3237,3.3236,3.3224,3.3234,3.3234,3.3234,3.3234,3.3234,0,3.2983,3.2998,3.3017,3.3042,3.3057,3.3065,3.3085,3.3097,3.3115,3.3132,3.3148,3.317,3.3188,3.3205,3.3224,3.3232,3.3236,3.3236,3.3236,3.3238,3.3234,3.323,3.3232,3.3232,3.3232,3.3232,3.3232,3.3232,3.2988,3.3009,3.302,3.3048,3.3063,3.3083,3.3094,3.3108,3.3123,3.3147,3.3162,3.3174,3.3191,3.3211,3.3228,3.3232,3.3238,3.3237,3.3243,3.3238,3.3239,3.3239,3.3235,3.3239,3.3239,3.3246,3.3246,3.3246]}]]